TimeCDT,TemperatureF,Dew PointF,Humidity,Sea Level PressureIn,VisibilityMPH,Wind Direction,Wind SpeedMPH,Gust SpeedMPH,PrecipitationIn,Events,Conditions,WindDirDegrees,DateUTC
12:53 AM,51.1,43.0,74,29.89,10.0,Calm,Calm,-,N/A,,Clear,0,2012-10-20 05:53:00
1:53 AM,54.0,41.0,62,29.90,10.0,Calm,Calm,-,N/A,,Clear,0,2012-10-20 06:53:00
2:53 AM,51.1,42.1,71,29.90,10.0,Calm,Calm,-,N/A,,Clear,0,2012-10-20 07:53:00
3:53 AM,48.9,42.1,77,29.91,10.0,Calm,Calm,-,N/A,,Clear,0,2012-10-20 08:53:00
4:53 AM,48.0,42.1,80,29.92,10.0,Calm,Calm,-,N/A,,Clear,0,2012-10-20 09:53:00
5:53 AM,46.0,43.0,89,29.94,10.0,Calm,Calm,-,N/A,,Clear,0,2012-10-20 10:53:00
6:53 AM,46.0,42.1,86,29.94,10.0,Calm,Calm,-,N/A,,Clear,0,2012-10-20 11:53:00
7:53 AM,48.0,45.0,89,29.97,10.0,Calm,Calm,-,N/A,,Clear,0,2012-10-20 12:53:00
8:53 AM,55.0,46.0,72,29.99,10.0,Calm,Calm,-,N/A,,Clear,0,2012-10-20 13:53:00
9:53 AM,64.0,46.9,54,30.00,10.0,SSW,4.6,-,N/A,,Clear,210,2012-10-20 14:53:00
10:53 AM,70.0,43.0,38,29.99,10.0,Variable,3.5,-,N/A,,Clear,0,2012-10-20 15:53:00
11:53 AM,73.9,39.9,29,29.98,10.0,WNW,4.6,-,N/A,,Clear,290,2012-10-20 16:53:00
12:53 PM,75.0,37.9,26,29.97,10.0,SSW,3.5,-,N/A,,Clear,210,2012-10-20 17:53:00
1:53 PM,77.0,35.1,22,29.94,10.0,Calm,Calm,-,N/A,,Clear,0,2012-10-20 18:53:00
2:53 PM,78.1,39.0,25,29.92,10.0,SW,5.8,-,N/A,,Clear,220,2012-10-20 19:53:00
3:53 PM,78.1,37.0,23,29.91,10.0,Calm,Calm,-,N/A,,Clear,0,2012-10-20 20:53:00
4:53 PM,79.0,37.0,22,29.91,10.0,Calm,Calm,-,N/A,,Clear,0,2012-10-20 21:53:00
5:53 PM,75.0,46.9,37,29.92,10.0,Calm,Calm,-,N/A,,Clear,0,2012-10-20 22:53:00
6:53 PM,64.9,50.0,58,29.92,10.0,Calm,Calm,-,N/A,,Clear,0,2012-10-20 23:53:00
7:53 PM,62.1,50.0,65,29.93,10.0,Calm,Calm,-,N/A,,Clear,0,2012-10-21 00:53:00
8:53 PM,60.1,51.1,72,29.94,10.0,Calm,Calm,-,N/A,,Clear,0,2012-10-21 01:53:00
9:53 PM,59.0,48.9,69,29.96,10.0,Calm,Calm,-,N/A,,Clear,0,2012-10-21 02:53:00
10:53 PM,57.9,50.0,75,29.96,10.0,Calm,Calm,-,N/A,,Clear,0,2012-10-21 03:53:00
11:53 PM,55.9,50.0,80,29.98,10.0,Calm,Calm,-,N/A,,Clear,0,2012-10-21 04:53:00